TimeMDT,TemperatureF,Dew PointF,Humidity,Sea Level PressureIn,VisibilityMPH,Wind Direction,Wind SpeedMPH,Gust SpeedMPH,PrecipitationIn,Events,Conditions,WindDirDegrees,DateUTC
12:53 AM,24.1,19.9,84,30.13,10.0,North,-9999.0,-,N/A,,Clear,0,2014-03-13 06:53:00
1:53 AM,24.1,19.9,84,30.12,10.0,North,-9999.0,-,N/A,,Clear,0,2014-03-13 07:53:00
2:53 AM,24.1,19.0,81,30.09,10.0,North,-9999.0,-,N/A,,Clear,0,2014-03-13 08:53:00
3:53 AM,24.1,19.0,81,30.05,10.0,North,-9999.0,-,N/A,,Clear,0,2014-03-13 09:53:00
4:53 AM,23.0,19.0,85,30.05,10.0,North,-9999.0,-,N/A,,Clear,0,2014-03-13 10:53:00
5:53 AM,24.1,18.0,77,30.03,10.0,North,-9999.0,-,N/A,,Clear,0,2014-03-13 11:53:00
6:53 AM,23.0,19.0,85,30.03,10.0,North,-9999.0,-,N/A,,Clear,0,2014-03-13 12:53:00
7:53 AM,27.0,21.9,81,30.04,10.0,West,3.5,-,N/A,,Clear,260,2014-03-13 13:53:00
8:53 AM,37.9,27.0,65,30.01,10.0,WSW,5.8,-,N/A,,Clear,250,2014-03-13 14:53:00
9:53 AM,48.9,18.0,29,29.96,10.0,West,18.4,-,N/A,,Clear,260,2014-03-13 15:53:00
10:53 AM,53.1,15.1,22,29.92,10.0,West,23.0,28.8,N/A,,Clear,260,2014-03-13 16:53:00
11:53 AM,57.0,15.1,19,29.86,10.0,West,28.8,35.7,N/A,,Clear,270,2014-03-13 17:53:00
12:53 PM,57.9,19.0,22,29.83,10.0,West,25.3,32.2,N/A,,Clear,260,2014-03-13 18:53:00
1:53 PM,61.0,19.0,20,29.78,10.0,West,25.3,33.4,N/A,,Clear,270,2014-03-13 19:53:00
2:53 PM,62.1,18.0,18,29.73,10.0,West,23.0,33.4,N/A,,Clear,270,2014-03-13 20:53:00
3:53 PM,63.0,19.9,19,29.72,10.0,West,21.9,26.5,N/A,,Clear,270,2014-03-13 21:53:00
4:53 PM,61.0,19.0,20,29.71,10.0,WNW,15.0,23.0,N/A,,Clear,300,2014-03-13 22:53:00
5:53 PM,57.0,23.0,27,29.72,10.0,NW,15.0,26.5,N/A,,Clear,320,2014-03-13 23:53:00
6:53 PM,51.1,25.0,36,29.76,10.0,NW,10.4,-,N/A,,Clear,310,2014-03-14 00:53:00
7:53 PM,48.0,28.0,46,29.77,10.0,NNW,13.8,-,N/A,,Clear,330,2014-03-14 01:53:00
8:53 PM,39.0,28.0,65,29.78,10.0,WNW,6.9,-,N/A,,Clear,290,2014-03-14 02:53:00
9:20 PM,43.0,27.0,53,29.79,10.0,North,16.1,-,N/A,,Clear,360,2014-03-14 03:20:00
9:53 PM,41.0,27.0,57,29.83,10.0,North,13.8,-,N/A,,Clear,360,2014-03-14 03:53:00
10:53 PM,37.9,26.1,62,29.85,10.0,North,11.5,-,N/A,,Scattered Clouds,360,2014-03-14 04:53:00
11:53 PM,36.0,25.0,64,29.88,10.0,NNW,11.5,-,N/A,,Clear,330,2014-03-14 05:53:00